Printer-friendly version

IAU Minor Planet Center

Minor Planet Center

MPEC 2004-Q45 : 2004 QD14

The following Minor Planet Electronic Circular may be linked-to from your own Web pages, but must not otherwise be redistributed electronically.


Read MPEC 2004-Q44 Read MPEC 2004-Q46


M.P.E.C. 2004-Q45                                Issued 2004 Aug. 26, 00:05 UT

     The Minor Planet Electronic Circulars contain information on unusual
         minor planets and routine data on comets.  They are published
   on behalf of Commission 20 of the International Astronomical Union by the
          Minor Planet Center, Smithsonian Astrophysical Observatory,
                          Cambridge, MA 02138, U.S.A.

                  Supported in part by the Brinson Foundation
             Prepared using the Tamkin Foundation Computer Network

                              MPC@CFA.HARVARD.EDU
          URL http://cfa-www.harvard.edu/iau/mpc.html  ISSN 1523-6714

                                   2004 QD14

Observations:
     K04Q14D* C2004 08 24.47580 20 50 40.87 -58 03 37.7          17.7 R EQ045E12
     K04Q14D  C2004 08 24.47627 20 50 40.76 -58 03 35.2          18.6 R EQ045E12
     K04Q14D  C2004 08 24.48527 20 50 39.09 -58 03 08.0          18.9 R EQ045E12
     K04Q14D  C2004 08 24.48574 20 50 38.83 -58 03 05.4          18.1 R EQ045E12
     K04Q14D  C2004 08 24.49474 20 50 37.22 -58 02 38.1          19.4 R EQ045E12
     K04Q14D  C2004 08 24.49521 20 50 36.96 -58 02 35.8          18.4 R EQ045E12
     K04Q14D  C2004 08 24.50422 20 50 35.42 -58 02 09.3          18.1 R EQ045E12
     K04Q14D  C2004 08 24.50470 20 50 35.15 -58 02 06.6          18.6 R EQ045E12
     K04Q14D 1C2004 08 24.62211 20 50 12.209-57 55 50.37         18.6 R EQ045413
     K04Q14D 1C2004 08 24.62373 20 50 11.903-57 55 45.01         18.9 R EQ045413
     K04Q14D 1C2004 08 24.62535 20 50 11.593-57 55 39.65         18.7 R EQ045413
     K04Q14D 1C2004 08 24.73983 20 49 50.922-57 49 19.65         18.8 R EQ045413
     K04Q14D 1C2004 08 24.74134 20 49 50.674-57 49 14.61         19.1 R EQ045413
     K04Q14D 1C2004 08 24.74284 20 49 50.407-57 49 09.47         18.8 R EQ045413
     K04Q14D 1C2004 08 24.80290 20 49 40.672-57 45 48.33         19.0 R EQ045413
     K04Q14D 1C2004 08 24.80440 20 49 40.455-57 45 43.25         18.7 R EQ045413
     K04Q14D 1C2004 08 24.80591 20 49 40.217-57 45 38.33         19.0 R EQ045413
     K04Q14D 1C2004 08 25.37774 20 48 20.252-57 16 24.94         18.7 R EQ045413
     K04Q14D 1C2004 08 25.38259 20 48 19.445-57 16 10.78         18.7 R EQ045413
     K04Q14D  C2004 08 25.46066 20 48 04.27 -57 12 13.6          17.7 R EQ045474
     K04Q14D  C2004 08 25.46182 20 48 04.08 -57 12 10.0          17.7 R EQ045474
     K04Q14D  C2004 08 25.46273 20 48 04.04 -57 12 07.3          17.9 R EQ045474
     K04Q14D  C2004 08 25.46355 20 48 03.75 -57 12 05.2          17.5 R EQ045474
     K04Q14D 1C2004 08 25.76907 20 47 14.904-56 56 07.48         18.8 R EQ045413
     K04Q14D 1C2004 08 25.77093 20 47 14.633-56 56 01.38         18.8 R EQ045413
     K04Q14D 1C2004 08 25.77278 20 47 14.377-56 55 55.38         18.8 R EQ045413

Observer details:
413 Siding Spring.  Observer R. H. McNaught.  1.0-m f/8 reflector + CCD.
474 Mount John Observatory, Lake Tekapo.  Observer A. C. Gilmore.  Measurer
    P. M. Kilmartin.  1.0-m f/7.7 reflector + CCD.
E12 Siding Spring Survey.  Observers R. H. McNaught, G. J. Garradd, S. Larson,
    E. Beshore, E. Christensen, R. Hill.  Measurer R. H. McNaught.  0.5-m
    Uppsala Schmidt + CCD.

Orbital elements:
2004 QD14
Epoch 2004 Aug. 23.0 TT = JDT 2453240.5                 MPC
M 112.55201              (2000.0)            P               Q
n   1.07532260     Peri.  110.46639     -0.99148632     +0.07803484
a   0.9435760      Node    74.12308     -0.11518454     -0.89895040
e   0.3354057      Incl.    6.22146     +0.06072402     -0.43104378
P   0.92           H   20.6           G   0.15
From 26 observations 2004 Aug. 24-25.

Ephemeris:
2004 QD14                a,e,i = 0.94, 0.34, 6                   q = 0.6271
Date    TT    R. A. (2000) Decl.     Delta      r     Elong.  Phase     V
2004 08 23    20 55.22   -59 23.1    0.183    1.137   130.1    42.9    18.8
2004 09 02    20 36.60   -51 26.3    0.238    1.173   129.0    41.9    19.5
2004 09 12    20 34.37   -45 24.0    0.299    1.203   125.0    43.2    20.0
2004 09 22    20 39.84   -40 32.4    0.364    1.227   119.9    45.2    20.6
2004 10 02    20 49.77   -36 25.5    0.433    1.244   114.4    47.1    21.0
2004 10 12    21 02.52   -32 46.5    0.504    1.255   108.9    48.8    21.4
2004 10 22    21 17.32   -29 24.4    0.575    1.260   103.5    50.2    21.8
2004 11 01    21 33.58   -26 12.2    0.645    1.258    98.2    51.3    22.0

Timothy B. Spahr             (C) Copyright 2004 MPC           M.P.E.C. 2004-Q45

Read MPEC 2004-Q44 Read MPEC 2004-Q46


Our Web policy. Index to the CBAT/MPC/ICQ pages.


Valid HTML 4.01!